Budapest Ferihegy, Hungary

2:53 AM CEST on May 23, 2017 (GMT +0200)
Ferihegy

Weather History for LHBP - April, 2013

Change the Weather History Date:

Wednesday, April 17, 2013

  Actual Average Record
Temperature  
Mean Temperature 53 °F -  
Max Temperature 69 °F 65 °F 75 °F (2015)
Min Temperature 37 °F 44 °F 30 °F (1997)
Degree Days  
Heating Degree Days 12    
Growing Degree Days 3 (Base 50)    
Moisture  
Dew Point 39 °F    
Average Humidity 61    
Maximum Humidity 93    
Minimum Humidity 28    
Precipitation  
Precipitation 0.00 in - - ()
Sea Level Pressure  
Sea Level Pressure 30.23 in    
Wind  
Wind Speed 3 mph ()    
Max Wind Speed 9 mph    
Max Gust Speed -    
Visibility 6.2 miles    
Events      
Averages and records for this station are not official NWS values.
T = Trace of Precipitation, MM = Missing Value Source: Averaged Metar Reports

Daily Weather History Graph

Daily Weather History Graph

Search for Another Location

Airport or City:

Trip Planner

Search our weather history database for the weather conditions in past years. The results will help you decide how hot, cold, wet, or windy it might be!

Date:

Astronomy

Apr. 17, 2013 Rise Set
Actual Time 5:50 AM CEST 7:35 PM CEST
Civil Twilight 5:18 AM CEST 8:07 PM CEST
Nautical Twilight 4:38 AM CEST 8:47 PM CEST
Astronomical Twilight 3:55 AM CEST 9:31 PM CEST
Moon 10:38 AM CEST (4/17) 1:10 AM CEST (4/17)
Length of Visible Light 14h 49m
Length of Day
13h 44m
Waxing Crescent, 40% of the Moon is Illuminated
Apr 17
Waxing Crescent
Apr 18
First Quarter
Apr 25
Full
May 2
Last Quarter
May 10
New

Hourly Weather History & Observations

Time (CEST) Temp. Windchill Dew Point Humidity Pressure Visibility Wind Dir Wind Speed Gust Speed Precip Events Conditions
12:00 AM 48.2 °F - 41.0 °F 76% 30.27 in - Variable 2.3 mph - N/A   Clear
12:30 AM 41.0 °F 39.0 °F 35.6 °F 81% 30.27 in - Variable 3.5 mph - N/A   Clear
1:00 AM 41.0 °F - 33.8 °F 76% 30.27 in - Variable 1.2 mph - N/A   Clear
1:30 AM 41.0 °F - 37.4 °F 87% 30.27 in - Variable 2.3 mph - N/A   Clear
2:00 AM 41.0 °F - 37.4 °F 87% 30.27 in - Variable 2.3 mph - N/A   Clear
2:30 AM 39.2 °F 35.9 °F 35.6 °F 87% 30.27 in - NNW 4.6 mph - N/A   Clear
3:00 AM 39.2 °F 37.0 °F 37.4 °F 93% 30.24 in - Variable 3.5 mph - N/A   Clear
3:30 AM 37.4 °F 34.9 °F 35.6 °F 93% 30.24 in - Variable 3.5 mph - N/A   Clear
4:00 AM 39.2 °F - 37.4 °F 93% 30.24 in - Calm Calm - N/A   Clear
4:30 AM 39.2 °F - 35.6 °F 87% 30.24 in - Variable 1.2 mph - N/A   Clear
5:00 AM 37.4 °F - 33.8 °F 87% 30.24 in - Variable 1.2 mph - N/A   Clear
5:30 AM 37.4 °F - 35.6 °F 93% 30.24 in - Calm Calm - N/A   Clear
6:00 AM 37.4 °F - 35.6 °F 93% 30.24 in - Variable 1.2 mph - N/A   Clear
6:30 AM 37.4 °F - 35.6 °F 93% 30.24 in - Variable 2.3 mph - N/A   Clear
7:00 AM 39.2 °F - 37.4 °F 93% 30.24 in - Calm Calm - N/A   Clear
7:30 AM 48.2 °F - 42.8 °F 82% 30.24 in - Calm Calm - N/A   Clear
8:00 AM 51.8 °F - 42.8 °F 71% 30.24 in - Variable 1.2 mph - N/A   Clear
8:30 AM 51.8 °F - 44.6 °F 76% 30.27 in - Variable 2.3 mph - N/A   Clear
9:00 AM 57.2 °F - 44.6 °F 63% 30.27 in - Variable 1.2 mph - N/A   Clear
9:30 AM 60.8 °F - 42.8 °F 52% 30.27 in - Variable 3.5 mph - N/A   Clear
10:00 AM 62.6 °F - 41.0 °F 45% 30.27 in - WSW 4.6 mph - N/A   Clear
10:30 AM 66.2 °F - 44.6 °F 46% 30.27 in - Variable 2.3 mph - N/A   Clear
11:00 AM 64.4 °F - 41.0 °F 42% 30.27 in - Variable 3.5 mph - N/A   Clear
11:30 AM 66.2 °F - 37.4 °F 35% 30.27 in - NNE 4.6 mph - N/A   Clear
12:00 PM 66.2 °F - 37.4 °F 35% 30.24 in - SSE 6.9 mph - N/A   Clear
12:30 PM 66.2 °F - 35.6 °F 32% 30.24 in - SSW 6.9 mph - N/A   Clear
1:00 PM 66.2 °F - 37.4 °F 35% 30.24 in - West 5.8 mph - N/A   Clear
1:30 PM 66.2 °F - 33.8 °F 30% 30.24 in - South 6.9 mph - N/A   Clear
2:00 PM 68.0 °F - 37.4 °F 33% 30.24 in - WNW 5.8 mph - N/A   Clear
2:30 PM 68.0 °F - 35.6 °F 30% 30.24 in - NNE 4.6 mph - N/A   Clear
3:00 PM 69.8 °F - 35.6 °F 28% 30.21 in - Variable 2.3 mph - N/A   Clear
3:30 PM 69.8 °F - 37.4 °F 31% 30.21 in - NE 5.8 mph - N/A   Clear
4:00 PM 69.8 °F - 39.2 °F 33% 30.21 in - Variable 1.2 mph - N/A   Clear
4:30 PM 69.8 °F - 39.2 °F 33% 30.21 in 6.2 mi Variable 1.2 mph - N/A   Unknown
5:00 PM 68.0 °F - 35.6 °F 30% 30.18 in 6.2 mi Variable 3.5 mph - N/A   Unknown
5:30 PM 68.0 °F - 39.2 °F 35% 30.18 in 6.2 mi Variable 3.5 mph - N/A   Unknown
6:00 PM 66.2 °F - 39.2 °F 37% 30.18 in 6.2 mi SW 4.6 mph - N/A   Unknown
6:30 PM 66.2 °F - 41.0 °F 40% 30.18 in 6.2 mi SSW 4.6 mph - N/A   Unknown
7:00 PM 64.4 °F - 46.4 °F 52% 30.18 in - WNW 6.9 mph - N/A   Clear
7:30 PM 62.6 °F - 44.6 °F 52% 30.18 in - NW 9.2 mph - N/A   Clear
8:00 PM 62.6 °F - 42.8 °F 48% 30.18 in - NNW 6.9 mph - N/A   Clear
8:30 PM 60.8 °F - 42.8 °F 52% 30.18 in - North 4.6 mph - N/A   Clear
9:00 PM 57.2 °F - 42.8 °F 59% 30.21 in - Variable 2.3 mph - N/A   Clear
9:30 PM 55.4 °F - 42.8 °F 63% 30.21 in - Variable 2.3 mph - N/A   Clear
10:00 PM 53.6 °F - 42.8 °F 67% 30.21 in - Variable 1.2 mph - N/A   Clear
10:30 PM 50.0 °F - 42.8 °F 76% 30.21 in - Variable 1.2 mph - N/A   Clear
11:00 PM 50.0 °F - 42.8 °F 76% 30.21 in - Variable 1.2 mph - N/A   Clear
11:30 PM 50.0 °F - 41.0 °F 71% 30.18 in - Variable 1.2 mph - N/A   Clear